Regional Weather Roundup
Issued by NWS

Home | Current Version | Previous Version | Graphics & Text | Print | Product List | Glossary On
Versions: 1 2 3 4 5 6 7 8 9 10 11 12 13 14 15 16 17 18 19 20 21 22 23 24 25 26 27 28 29 30 31 32 33 34 35 36 37 38 39 40 41 42 43 44 45 46 47 48 49 50
000
ASUS43 KLMK 201302
RWRKY
KENTUCKY REGIONAL WEATHER ROUNDUP
NATIONAL WEATHER SERVICE LOUISVILLE KY
900 AM EDT WED SEP 20 2017

NOTE "FAIR" INDICATES FEW OR NO CLOUDS BELOW 12,000 FEET
WITH NO SIGNIFICANT WEATHER AND/OR OBSTRUCTIONS TO VISIBILITY.

KYZ001>023-026-027-061>063-070>075-201400-
WESTERN AND SOUTH CENTRAL KENTUCKY

CITY           SKY/WX    TMP DP  RH WIND       PRES   REMARKS
PADUCAH        SUNNY     74  69  85 VRB5      29.97R
HENDERSON      SUNNY     72  70  93 S5        30.00R
OWENSBORO      SUNNY     71  69  93 SE5       30.01R
HOPKINSVILLE   SUNNY     73  69  88 S5        30.02R
BOWLING GREEN  SUNNY     69  68  96 E3        30.04R
GLASGOW        SUNNY    N/A N/A N/A CALM      30.04S
$$

KYZ024-025-028>034-038-045-046-053-201400-
NORTH CENTRAL KENTUCKY

CITY           SKY/WX    TMP DP  RH WIND       PRES   REMARKS
LOUISVILLE/SDF MOSUNNY   70  67  90 SE6       30.03R
LOUISVILLE/LOU SUNNY     69  69 100 SE3       30.04R
FORT KNOX      SUNNY     67  67 100 CALM      30.02R
$$

KYZ035>037-039>044-047>052-055>060-089>105-201400-
NORTHEAST KENTUCKY

CITY           SKY/WX    TMP DP  RH WIND       PRES   REMARKS
LEXINGTON      SUNNY     68  67  96 S5        30.07R FOG
COVINGTON      PTSUNNY   68  68 100 S3        30.05R
FRANKFORT      SUNNY     68  64  87 CALM      30.05R
$$

KYZ054-064>069-076>088-106>120-201400-
SOUTHEAST KENTUCKY

CITY           SKY/WX    TMP DP  RH WIND       PRES   REMARKS
JACKSON        PTSUNNY   67  66  97 CALM      30.08R FOG
LONDON         SUNNY     64  62  93 CALM      30.09R FOG
SOMERSET       NOT AVBL
MIDDLESBORO    FOG       62  62 100 CALM      30.11R VSB 1/2
MONTICELLO     SUNNY     65  64  97 VRB7      30.09R
$$




USA.gov is the U.S. government's official web portal to all federal, state and local government web resources and services.